GW4817 Weather Reports


time (UTC)temp
C
wind
direction
speed
KPH
gust
KPH
rain 1hr
cm
rain 24hr
cm
rain mn
cm
humidity
%
barometer
mb
20260504100352 36 122 1.6 4.8 0.00 0.00 0.00 51 999.0
20260504081851 37 239 6.4 8.0 0.00 0.00 0.00 46 1001.0
20260504081351 36 123 1.6 1.6 0.00 0.00 0.00 48 1001.0
20260504080851 37 299 6.4 8.0 0.00 0.00 0.00 47 1001.0
20260504080351 36 179 6.4 8.0 0.00 0.00 0.00 49 1001.0
20260504070350 35 230 6.4 8.0 0.00 0.00 0.00 53 1002.0
20260504050350 32 195 8.0 11.3 0.00 0.00 0.00 58 1004.0
20260504045851 32 138 14.5 20.9 0.00 0.00 0.00 58 1004.0
20260504045350 32 222 6.4 9.7 0.00 0.00 0.00 58 1004.0
20260504044851 32 165 4.8 4.8 0.00 0.00 0.00 59 1004.0
20260504044352 31 215 8.0 9.7 0.00 0.00 0.00 60 1004.0
20260504043850 31 134 6.4 9.7 0.00 0.00 0.00 60 1004.0
20260504043351 31 176 8.0 9.7 0.00 0.00 0.00 62 1004.0
20260504042850 31 234 9.7 11.3 0.00 0.00 0.00 64 1004.0
20260504042353 31 151 11.3 12.9 0.00 0.00 0.00 64 1004.0
20260504041851 31 204 8.0 14.5 0.00 0.00 0.00 64 1004.0
20260504041351 30 175 9.7 11.3 0.00 0.00 0.00 65 1005.0
20260504040851 30 209 11.3 12.9 0.00 0.00 0.00 65 1004.0
20260504040350 30 157 16.1 20.9 0.00 0.00 0.00 66 1004.0
20260504035850 30 176 8.0 11.3 0.00 0.00 0.00 67 1004.0
20260504035350 30 185 14.5 22.5 0.00 0.00 0.00 68 1004.0
20260504034851 30 159 12.9 16.1 0.00 0.00 0.00 69 1004.0
20260504034351 30 206 12.9 16.1 0.00 0.00 0.00 70 1004.0
20260504033850 30 192 9.7 12.9 0.00 0.00 0.00 70 1004.0
20260504033350 30 146 11.3 14.5 0.00 0.00 0.00 70 1005.0
20260504032851 30 155 8.0 11.3 0.00 0.00 0.00 70 1005.0
20260504032351 30 119 3.2 3.2 0.00 0.00 0.00 70 1004.0
20260504031852 30 138 3.2 4.8 0.00 0.00 0.00 70 1004.0
20260504031351 30 180 4.8 4.8 0.00 0.00 0.00 70 1004.0
20260504030853 30 143 4.8 4.8 0.00 0.00 0.00 70 1004.0
20260504030351 30 157 4.8 8.0 0.00 0.00 0.00 70 1004.0
20260504025851 30 51 3.2 3.2 0.00 0.00 0.00 70 1004.0
20260504025350 30 151 4.8 4.8 0.00 0.00 0.00 70 1004.0
20260504024851 30 120 4.8 4.8 0.00 0.00 0.00 69 1004.0
20260504024351 30 130 9.7 11.3 0.00 0.00 0.00 69 1004.0
20260504023850 30 90 1.6 1.6 0.00 0.00 0.00 69 1004.0
20260504023351 30 182 1.6 1.6 0.00 0.00 0.00 69 1003.0
20260504022851 30 129 1.6 1.6 0.00 0.00 0.00 69 1003.0
20260504022350 30 198 6.4 8.0 0.00 0.00 0.00 69 1003.0
20260504021850 30 128 4.8 4.8 0.00 0.00 0.00 70 1003.0
20260504021351 30 142 4.8 8.0 0.00 0.00 0.00 71 1003.0
20260504020851 29 167 4.8 4.8 0.00 0.00 0.00 71 1003.0
20260504020350 29 181 6.4 8.0 0.00 0.00 0.00 71 1003.0
20260504015851 29 120 4.8 4.8 0.00 0.00 0.00 72 1003.0
20260504015351 29 224 3.2 4.8 0.00 0.00 0.00 72 1003.0
20260504014850 29 129 4.8 4.8 0.00 0.00 0.00 72 1003.0
20260504014350 28 168 6.4 8.0 0.00 0.00 0.00 72 1002.0
20260504013850 28 162 1.6 3.2 0.00 0.00 0.00 71 1003.0
20260504013351 28 160 6.4 8.0 0.00 0.00 0.00 71 1002.0
20260504012850 28 152 8.0 12.9 0.00 0.00 0.00 71 1003.0
20260504012351 28 151 4.8 4.8 0.00 0.00 0.00 71 1003.0
20260504011850 28 108 1.6 1.6 0.00 0.00 0.00 72 1003.0
20260504011351 28 110 1.6 3.2 0.00 0.00 0.00 72 1003.0
20260504010851 28 116 4.8 9.7 0.00 0.00 0.00 73 1003.0
20260504010352 28 59 9.7 14.5 0.00 0.00 0.00 73 1003.0
20260504005850 28 164 9.7 12.9 0.00 0.00 0.00 73 1003.0
20260504005350 28 97 4.8 8.0 0.00 0.00 0.00 73 1002.0
20260504004851 28 121 4.8 4.8 0.00 0.00 0.00 74 1002.0
20260504004353 28 167 3.2 3.2 0.00 0.00 0.00 74 1002.0
20260504003850 28 116 4.8 8.0 0.00 0.00 0.00 74 1002.0
20260504003351 28 134 8.0 12.9 0.00 0.00 0.00 73 1002.0
20260504002850 28 104 4.8 4.8 0.00 0.00 0.00 72 1002.0
20260504002350 28 120 4.8 4.8 0.00 0.00 0.00 72 1002.0
20260504001850 28 70 4.8 8.0 0.00 0.00 0.00 71 1002.0
20260504001350 28 134 8.0 11.3 0.00 0.00 0.00 70 1002.0
20260504000850 28 74 8.0 12.9 0.00 0.00 0.00 70 1002.0
20260504000351 28 67 6.4 8.0 0.00 0.00 0.00 69 1002.0
20260503235851 28 75 3.2 4.8 0.00 0.00 0.00 70 1002.0
20260503235350 28 46 1.6 4.8 0.00 0.00 0.00 70 1002.0
20260503234850 29 120 9.7 12.9 0.00 0.00 0.00 70 1002.0
20260503234353 28 137 6.4 9.7 0.00 0.00 0.00 70 1002.0
20260503233851 28 154 1.6 8.0 0.00 0.00 0.00 70 1002.0
20260503233350 28 106 4.8 8.0 0.00 0.00 0.00 70 1002.0
20260503232851 28 84 4.8 8.0 0.00 0.00 0.00 71 1002.0
20260503232351 28 102 9.7 11.3 0.00 0.00 0.00 71 1002.0
20260503231851 28 107 4.8 4.8 0.00 0.00 0.00 72 1002.0
20260503231351 28 84 4.8 4.8 0.00 0.00 0.00 73 1002.0
20260503230850 28 69 1.6 8.0 0.00 0.00 0.00 74 1002.0
20260503230350 28 77 3.2 8.0 0.00 0.00 0.00 74 1002.0
20260503225851 27 96 3.2 4.8 0.00 0.00 0.00 74 1002.0
20260503225350 27 77 8.0 11.3 0.00 0.00 0.00 75 1002.0
20260503224851 27 140 8.0 12.9 0.00 0.00 0.00 76 1002.0
20260503224350 27 42 3.2 4.8 0.00 0.00 0.00 77 1002.0
20260503223850 28 64 11.3 16.1 0.00 0.00 0.00 76 1002.0
20260503223350 28 67 9.7 17.7 0.00 0.00 0.00 74 1002.0
20260503222850 28 154 3.2 4.8 0.00 0.00 0.00 72 1001.0
20260503222352 28 57 8.0 11.3 0.00 0.00 0.00 72 1001.0
20260503221850 28 87 9.7 11.3 0.00 0.00 0.00 71 1002.0
20260503221351 28 95 4.8 8.0 0.00 0.00 0.00 70 1001.0
20260503220850 29 72 8.0 11.3 0.00 0.00 0.00 71 1001.0
20260503220350 30 100 11.3 16.1 0.00 0.00 0.00 70 1001.0
20260503215851 30 91 4.8 9.7 0.00 0.00 0.00 70 1001.0
20260503215350 31 124 6.4 8.0 0.00 0.00 0.00 66 1002.0
20260503214850 31 106 0.0 0.0 0.00 0.00 0.00 66 1002.0
20260503214352 31 116 1.6 1.6 0.00 0.00 0.00 66 1002.0
20260503213851 31 149 0.0 0.0 0.00 0.00 0.00 66 1001.0
20260503213350 31 142 1.6 1.6 0.00 0.00 0.00 65 1002.0
20260503212850 30 140 0.0 0.0 0.00 0.00 0.00 66 1001.0
20260503212353 30 130 0.0 0.0 0.00 0.00 0.00 66 1001.0
20260503211851 30 172 0.0 0.0 0.00 0.00 0.00 66 1001.0
20260503211352 30 153 0.0 0.0 0.00 0.00 0.00 65 1001.0
20260503210851 30 135 0.0 0.0 0.00 0.00 0.00 65 1002.0
20260503210351 31 52 1.6 3.2 0.00 0.00 0.00 65 1002.0
20260503205850 31 135 1.6 3.2 0.00 0.00 0.00 65 1002.0
20260503205350 31 144 0.0 0.0 0.00 0.00 0.00 65 1002.0
20260503204850 31 180 0.0 1.6 0.00 0.00 0.00 65 1002.0
20260503204351 31 163 1.6 1.6 0.00 0.00 0.00 64 1002.0
20260503203851 31 170 3.2 4.8 0.00 0.00 0.00 63 1002.0
20260503203351 31 169 0.0 0.0 0.00 0.00 0.00 61 1002.0
20260503202850 31 166 1.6 1.6 0.00 0.00 0.00 59 1001.0
20260503202350 31 208 0.0 0.0 0.00 0.00 0.00 61 1001.0
20260503201850 31 181 0.0 0.0 0.00 0.00 0.00 60 1001.0
20260503201351 31 182 4.8 4.8 0.00 0.00 0.00 59 1002.0
20260503200850 31 154 0.0 0.0 0.00 0.00 0.00 59 1001.0
20260503200351 31 143 0.0 0.0 0.00 0.00 0.00 59 1002.0
20260503195850 31 56 1.6 1.6 0.00 0.00 0.00 59 1002.0
20260503195350 31 359 3.2 3.2 0.00 0.00 0.00 59 1002.0
20260503194851 31 132 0.0 1.6 0.00 0.00 0.00 59 1002.0
20260503194350 31 130 0.0 0.0 0.00 0.00 0.00 60 1002.0
20260503193850 31 104 3.2 3.2 0.00 0.00 0.00 60 1002.0
20260503193351 31 77 1.6 1.6 0.00 0.00 0.00 60 1002.0
20260503192851 31 108 1.6 3.2 0.00 0.00 0.00 61 1002.0
20260503192351 31 96 0.0 1.6 0.00 0.00 0.00 61 1002.0
20260503191851 31 118 0.0 0.0 0.00 0.00 0.00 60 1002.0
20260503191350 31 96 0.0 0.0 0.00 0.00 0.00 60 1002.0
20260503190851 31 154 0.0 0.0 0.00 0.00 0.00 60 1002.0
20260503190350 31 174 0.0 0.0 0.00 0.00 0.00 60 1002.0
20260503185850 31 138 0.0 0.0 0.00 0.00 0.00 60 1003.0
20260503185350 31 149 0.0 0.0 0.00 0.00 0.00 60 1003.0
20260503184851 31 78 4.8 4.8 0.00 0.00 0.00 60 1003.0
20260503184351 31 40 3.2 4.8 0.00 0.00 0.00 60 1003.0
20260503183851 31 345 1.6 3.2 0.00 0.00 0.00 59 1003.0
20260503183351 31 155 0.0 0.0 0.00 0.00 0.00 58 1003.0
20260503182851 31 21 3.2 3.2 0.00 0.00 0.00 58 1003.0
20260503182351 31 354 6.4 8.0 0.00 0.00 0.00 57 1003.0
20260503181851 31 128 0.0 0.0 0.00 0.00 0.00 56 1003.0
20260503181350 31 127 0.0 1.6 0.00 0.00 0.00 56 1003.0
20260503180851 32 348 8.0 8.0 0.00 0.00 0.00 56 1003.0
20260503180350 32 296 1.6 3.2 0.00 0.00 0.00 56 1003.0
20260503175851 32 153 0.0 0.0 0.00 0.00 0.00 56 1003.0
20260503175351 32 154 0.0 0.0 0.00 0.00 0.00 56 1003.0
20260503174850 32 351 8.0 11.3 0.00 0.00 0.00 56 1003.0
20260503174351 32 230 0.0 1.6 0.00 0.00 0.00 59 1003.0
20260503173850 32 286 4.8 4.8 0.00 0.00 0.00 57 1003.0
20260503173351 32 310 8.0 9.7 0.00 0.00 0.00 60 1003.0
20260503172851 32 308 8.0 9.7 0.00 0.00 0.00 64 1003.0
20260503172351 32 143 1.6 1.6 0.00 0.00 0.00 64 1003.0
20260503171851 32 203 8.0 9.7 0.00 0.00 0.00 63 1002.0
20260503171351 32 177 4.8 8.0 0.00 0.00 0.00 62 1002.0
20260503170850 32 201 3.2 4.8 0.00 0.00 0.00 62 1003.0
20260503170352 32 169 1.6 1.6 0.00 0.00 0.00 62 1002.0
20260503150851 32 97 1.6 1.6 0.00 0.00 0.00 58 1001.0
20260503150350 32 182 9.7 11.3 0.00 0.00 0.00 58 1001.0
20260503131351 33 150 11.3 14.5 0.00 0.00 0.00 58 999.0
20260503130852 33 183 12.9 14.5 0.00 0.00 0.00 58 999.0
20260503130350 33 143 8.0 11.3 0.00 0.00 0.00 59 999.0
20260503110352 33 108 9.7 12.9 0.00 0.00 0.00 60 998.0